Prescott, AZ

1:39 PM MST on April 25, 2017 (GMT -0700)
Love

Weather History for KPRC - December, 2013

Change the Weather History Date:

Sunday, December 29, 2013

  Actual Average Record
Temperature  
Mean Temperature 38 °F 38 °F  
Max Temperature 51 °F 50 °F 68 °F (2011)
Min Temperature 24 °F 25 °F 7 °F (1988)
Degree Days  
Heating Degree Days 27    
Month to date heating degree days 783  
Since 1 July heating degree days 1689  
Cooling Degree Days 0    
Month to date cooling degree days 0  
Year to date cooling degree days 1127  
Moisture  
Dew Point 14 °F    
Average Humidity 42    
Maximum Humidity 63    
Minimum Humidity 21    
Precipitation  
Precipitation 0.00 in 0.03 in 1.14 in (2004)
Month to date precipitation 0.31 0.89  
Year to date precipitation 12.94 13.90  
Sea Level Pressure  
Sea Level Pressure 30.09 in    
Wind  
Wind Speed 7 mph (NW)    
Max Wind Speed 17 mph    
Max Gust Speed 21 mph    
Visibility 10 miles    
Events      
T = Trace of Precipitation, MM = Missing Value Source: NWS Daily Summary

Daily Weather History Graph

Daily Weather History Graph

Search for Another Location

Airport or City:

Trip Planner

Search our weather history database for the weather conditions in past years. The results will help you decide how hot, cold, wet, or windy it might be!

Date:

Astronomy

Dec. 29, 2013 Rise Set
Actual Time 7:36 AM MST 5:27 PM MST
Civil Twilight 7:08 AM MST 5:55 PM MST
Nautical Twilight 6:36 AM MST 6:27 PM MST
Astronomical Twilight 6:05 AM MST 6:58 PM MST
Moon 4:27 AM MST (12/29) 3:06 PM MST (12/29)
Length of Visible Light 10h 47m
Length of Day
9h 51m
Waning Crescent, 10% of the Moon is Illuminated
Dec 29
Waning Crescent
Jan 1
New
Jan 7
First Quarter
Jan 15
Full
Jan 23
Last Quarter

Hourly Weather History & Observations

Time (MST) Temp. Windchill Dew Point Humidity Pressure Visibility Wind Dir Wind Speed Gust Speed Precip Events Conditions
12:53 AM 30.9 °F 24.3 °F 19.9 °F 64% 29.98 in 10.0 mi West 6.9 mph - N/A   Clear
1:53 AM 30.0 °F 26.5 °F 19.9 °F 66% 29.98 in 10.0 mi SSW 3.5 mph - N/A   Clear
2:53 AM 35.1 °F 26.9 °F 18.0 °F 50% 29.97 in 10.0 mi WNW 11.5 mph - N/A   Clear
3:53 AM 34.0 °F 24.6 °F 17.1 °F 50% 29.98 in 10.0 mi WNW 13.8 mph - N/A   Clear
4:53 AM 34.0 °F 25.5 °F 16.0 °F 48% 29.98 in 10.0 mi WNW 11.5 mph - N/A   Clear
5:53 AM 32.0 °F 25.6 °F 16.0 °F 52% 30.02 in 10.0 mi West 6.9 mph - N/A   Clear
6:53 AM 30.9 °F 23.5 °F 15.1 °F 52% 30.05 in 10.0 mi West 8.1 mph - N/A   Clear
7:53 AM 30.9 °F 23.5 °F 14.0 °F 50% 30.09 in 10.0 mi West 8.1 mph - N/A   Clear
8:53 AM 34.0 °F 27.2 °F 15.1 °F 46% 30.11 in 10.0 mi WNW 8.1 mph - N/A   Clear
9:53 AM 37.0 °F 32.4 °F 15.1 °F 41% 30.12 in 10.0 mi WNW 5.8 mph - N/A   Clear
10:53 AM 43.0 °F 39.5 °F 15.1 °F 32% 30.11 in 10.0 mi Variable 5.8 mph - N/A   Clear
11:53 AM 46.0 °F 41.4 °F 16.0 °F 30% 30.08 in 10.0 mi North 9.2 mph - N/A   Clear
12:53 PM 48.9 °F - 14.0 °F 25% 30.06 in 10.0 mi North 12.7 mph - N/A   Clear
1:53 PM 51.1 °F - 14.0 °F 23% 30.04 in 10.0 mi North 12.7 mph - N/A   Clear
2:53 PM 51.1 °F - 12.9 °F 22% 30.04 in 10.0 mi NNE 15.0 mph - N/A   Clear
3:53 PM 51.1 °F - 14.0 °F 23% 30.04 in 10.0 mi NNE 8.1 mph - N/A   Clear
4:53 PM 48.9 °F - 15.1 °F 26% 30.06 in 10.0 mi ENE 4.6 mph - N/A   Clear
5:53 PM 42.1 °F 40.2 °F 15.1 °F 34% 30.12 in 10.0 mi NNE 3.5 mph - N/A   Clear
6:53 PM 35.1 °F 31.0 °F 12.9 °F 40% 30.19 in 10.0 mi North 4.6 mph - N/A   Clear
7:53 PM 32.0 °F - 12.0 °F 44% 30.19 in 10.0 mi Calm Calm - N/A   Clear
8:53 PM 32.0 °F 28.7 °F 9.0 °F 38% 30.21 in 10.0 mi WSW 3.5 mph - N/A   Clear
9:53 PM 28.0 °F 24.2 °F 10.9 °F 49% 30.23 in 10.0 mi SSW 3.5 mph - N/A   Clear
10:53 PM 27.0 °F 20.5 °F 10.0 °F 49% 30.23 in 10.0 mi SSW 5.8 mph - N/A   Clear
11:53 PM 25.0 °F 18.1 °F 10.0 °F 53% 30.22 in 10.0 mi SSW 5.8 mph - N/A   Clear